Погода в Буроне

Россия / Республика Северная Осетия — Алания     42°47′40″N   44°00′30″E
темп.,
°C
ветер,
м/с
пор.,
м/с
влажн.,
%
обл.,
%
осадки,
мм/ч
давл.,
гПа
погр.,
м
14 мая, пт
пт1400:00+5ю337595 0.0 102045
03:00+5ю346420 0.0 102044
06:00+7ююз335826 0.0 102054
09:00+13ю23402 0.0 10171508
12:00+16ю333666 0.0 10172691
15:00+14ююз234194 0.1 10172160
18:00+12ююз22563 0.1 101775
21:00+6ююз33741 0.1 102036
15 мая, сб
сб1500:00+5ююз34751 0.0 102045
03:00+5ююз34741 0.0 102047
06:00+6ю237411 0.0 102066
09:00+13св224111 0.0 10171607
12:00+15св224296 0.1 10152419
15:00+8ссз2284100 7.3 1019246
18:00+9ссв127741 3.3 1018132
21:00+5ю228326 3.4 101923
16 мая, вс
вс1600:00+4ю3494100 0.0 101960
03:00+4ю449368 0.0 101863
06:00+5ю34855 0.0 1017115
09:00+11ю34485 0.0 1014703
12:00+14ю44455 0.0 10131593
15:00+14ю344611 0.2 10121587
18:00+11ю446097 0.0 1012503
21:00+6ю4574100 0.0 101593
17 мая, пн
пн1700:00+5ююз557385 0.0 1015112
03:00+5ю4557100 0.0 101589
06:00+6ююз455952 0.0 101491
09:00+13ююз45400 0.0 10111119
12:00+15ююз45345 0.0 10112299
15:00+15ююз46345 0.0 10112187
18:00+11ююз4458100 0.4 1012137
21:00+5ю4491100 3.8 1017103
18 мая, вт
вт1800:00+5ю3482100 0.1 101456
03:00+4ю338284 0.3 101339
06:00+7ю1176100 0.6 101340
09:00+2юз3499100 9.1 1016185
12:00+10юз237087 4.8 1012734
15:00+7ссв228164 7.9 1014597
18:00+5ссв3396100 4.1 1016334
21:00+3всв129795 5.1 1018108